Home   Weather   Dawson Creek   Past weeks

Flag for Canada Past Weather in Dawson Creek, British Columbia, Canada — Yesterday and Last 2 Weeks

37 °F

Broken clouds.

Feels Like: 37 °F
Forecast: 27 / 43 °F
Wind: No wind

Location: Dawson Creek Airport

Current Time: Oct 21, 2016 at 7:02:19 PM

Latest Report: Oct 21, 2016 at 6:00 PM

Visibility: 9 mi

Pressure: 29.80 "Hg (27.43 "Hg at 668m altitude)

Humidity: 81%

Dew Point: 32 °F

Location of Dawson CreekLocation

Past Weather in Dawson Creek — Graph


Dawson Creek Temperature Yesterday

Maximum temperature yesterday: 43 °F (at 3:00 PM)
Minimum temperature yesterday: 32 °F (at 10:00 PM)
Average temperature yesterday: 37 °F

High & Low Weather Summary for the Past Weeks

High46 °F (Oct 19, 2:00 PM)100% (Oct 7, 7:00 AM)30.40 "Hg (Oct 7, 7:00 AM)
Low14 °F (Oct 19, 12:03 AM)57% (Oct 11, 3:00 PM)29.39 "Hg (Oct 16, 5:00 AM)
Average29 °F89%29.95 "Hg
* Reported Oct 6 5:00 PM — Oct 21 5:00 PM, Dawson Creek, Weather by CustomWeather, © 2016

Note: Actual official high and low records may vary slightly from our data, if they occured in-between our weather recording intervals... More about our weather records


Dawson Creek Weather History for the Previous 24 Hours

Scroll right to see more
Time TempWeatherWind HumidityBarometerVisibility
5:00 PM
Fri, Oct 21
41 °FScattered clouds.No wind76%29.80 "Hg9 mi
4:00 PM45 °FPartly sunny.3 mph71%29.81 "Hg9 mi
3:00 PM43 °FPartly sunny.5 mph71%29.81 "Hg9 mi
2:00 PM46 °FSunny.7 mph62%29.81 "Hg9 mi
1:00 PM46 °FSunny.5 mph57%29.83 "Hg9 mi
12:00 PM45 °FSunny.2 mph61%29.85 "Hg9 mi
11:00 AM45 °FSunny.5 mph61%29.86 "Hg9 mi
10:00 AM43 °FSunny.2 mph66%29.87 "Hg9 mi
9:00 AM37 °FSunny.No wind75%29.88 "Hg9 mi
8:00 AM37 °FClear.5 mph75%29.88 "Hg9 mi
7:00 AM37 °FClear.5 mph75%29.88 "Hg9 mi
6:00 AM41 °FClear.10 mph66%29.85 "Hg9 mi
5:00 AM41 °FClear.16 mph70%29.83 "Hg9 mi
4:00 AM37 °FClear.6 mph81%29.84 "Hg9 mi
3:00 AM41 °FPassing clouds.7 mph76%29.83 "Hg9 mi
2:00 AM41 °FOvercast.7 mph76%29.81 "Hg9 mi
1:00 AM43 °FMostly cloudy.9 mph71%29.80 "Hg9 mi
12:00 AM36 °FPartly cloudy.5 mph93%29.80 "Hg9 mi
11:00 PM
Thu, Oct 20
32 °FMostly cloudy.No wind100%29.78 "Hg9 mi
10:00 PM32 °FMostly cloudy.3 mph100%29.77 "Hg9 mi
9:00 PM34 °FMostly cloudy.2 mph93%29.77 "Hg9 mi
8:00 PM34 °FPassing clouds.3 mph100%29.76 "Hg9 mi
7:00 PM34 °FClear.2 mph100%29.75 "Hg9 mi
Weather by CustomWeather, © 2016

See weather overviewHow to use our weather pages